This demonstration page uses our WeatherBlox Daily Observations layout. Learn more.

39.92423, -83.80882

Hourly Observations for March 31, 2019

Temp ( °F °C ) Dew Point ( °F °C ) Humidity (%) Winds ( mph kmh ) Pressure ( in mb ) Visibility ( mi km ) Precip ( " mm )
12:56 am 00:56 Cloudy with Light Rain 35 1.7 34 1.1 96 96 NNW 20 31 29.88 1012 10 16.0934 0 0.0254
1:56 am 01:56 Cloudy 34 1.1 33 0.6 97 97 NW 16 26 29.91 1013 10 16.0934 0 0.0254
2:03 am 02:03 Cloudy 34 1 34 1 100 100 NW 17 28 29.95 1014 10 16.0934 0 0
2:56 am 02:56 Cloudy with Light Rain 35 1.7 33 0.6 93 93 NNW 16 26 29.95 1014 10 16.0934 0 0.0254
3:28 am 03:28 Cloudy with Light Rain 34 1 34 1 100 100 NW 13 20 30 1016 10 16.0934 0 0.0254
3:56 am 03:56 Cloudy with Light Snow 34 1.1 33 0.6 97 97 NW 16 26 29.98 1015 10 16.0934 0 0.0254
4:56 am 04:56 Cloudy 33 0.6 31 -0.6 92 92 WNW 16 26 30.01 1016 10 16.0934 0 0.0254
5:41 am 05:41 Cloudy 32 0 30 -1 93 93 NW 17 28 30.07 1018 10 16.0934 0 0
5:56 am 05:56 Cloudy 32 0 30 -1.1 92 92 WNW 14 22 30.05 1018 10 16.0934 0 0
6:56 am 06:56 Cloudy 30 -1.1 26 -3.3 85 85 WNW 12 19 30.1 1019 10 16.0934 0 0
7:10 am 07:10 Cloudy 28 -2 25 -4 86 86 NW 16 26 30.14 1021 10 16.0934 0 0
7:56 am 07:56 Mostly Cloudy 27 -2.8 21 -6.1 78 78 NW 14 22 30.15 1021 10 16.0934 0 0
8:03 am 08:03 Partly Cloudy 27 -3 21 -6 80 80 NW 17 28 30.19 1022 10 16.0934 0 0
8:56 am 08:56 Mostly Sunny 28 -2.2 21 -6.1 75 75 WNW 15 24 30.18 1022 10 16.0934 0 0
9:56 am 09:56 Sunny 27 -2.8 20 -6.7 75 75 NW 16 26 30.2 1023 10 16.0934 0 0
10:56 am 10:56 Mostly Cloudy 28 -2.2 20 -6.7 72 72 NW 17 28 30.22 1024 10 16.0934 0 0
11:13 am 11:13 Partly Cloudy 28 -2 19 -7 69 69 NW 21 33 30.25 1024 10 16.0934 0 0
11:36 am 11:36 Mostly Cloudy 28 -2 21 -6 74 74 NW 16 26 30.26 1025 10 16.0934 0 0
11:56 am 11:56 Cloudy 30 -1.1 22 -5.6 72 72 NNW 17 28 30.24 1024 10 16.0934 0 0
12:56 pm 12:56 Cloudy 29 -1.7 20 -6.7 69 69 WNW 21 33 30.25 1024 10 16.0934 0 0
1:56 pm 13:56 Cloudy with Light Wintry Mix 31 -0.6 22 -5.6 69 69 WNW 18 30 30.25 1025 10 16.0934 0 0.0254
2:56 pm 14:56 Cloudy 31 -0.6 21 -6.1 67 67 WNW 17 28 30.26 1025 10 16.0934 0 0.0254
3:56 pm 15:56 Cloudy with Light Wintry Mix 31 -0.6 22 -5.6 69 69 WNW 21 33 30.25 1025 10 16.0934 0 0.0254
4:56 pm 16:56 Cloudy with Light Wintry Mix 31 -0.6 22 -5.6 69 69 NW 20 31 30.26 1025 10 16.0934 0 0.0254
5:56 pm 17:56 Cloudy with Light Snow 31 -0.6 22 -5.6 69 69 NW 14 22 30.28 1025 10 16.0934 0 0.0254
6:56 pm 18:56 Cloudy 31 -0.6 22 -5.6 69 69 WNW 17 28 30.29 1026 10 16.0934 0 0.0254
7:56 pm 19:56 Cloudy with Light Snow 30 -1.1 20 -6.7 66 66 WNW 15 24 30.32 1027 9 14.48406 0 0.0254
8:56 pm 20:56 Cloudy 30 -1.1 20 -6.7 66 66 NW 10 17 30.34 1027 10 16.0934 0 0.0254
9:56 pm 21:56 Cloudy 29 -1.7 20 -6.7 69 69 NW 10 17 30.36 1028 10 16.0934 0 0
10:56 pm 22:56 Clear 27 -2.8 20 -6.7 75 75 NW 8 13 30.38 1029 10 16.0934 0 0
11:56 pm 23:56 Clear 27 -2.8 20 -6.7 75 75 WNW 7 11 30.39 1029 10 16.0934 0 0

Powered by AerisWeather